Location: ActonStarParty
(42.4766°N, 71.4538°W)
Time: 19:26:02
(UTC-05:00)

Amateur Radio Satellites - All Passes

Search period start: 24 November 2014 18:56
Search period end: 25 November 2014 18:56
Location: ActonStarParty, 42.4766°N, 71.4538°W

Satellite Date Start Highest point End Downlink Frequencies (MHz)
Time Altitude Azimuth
CUBESAT XI-V 24 Nov 18:55:51 19:00:32 69° 285° (WNW) 19:05:08 437.345
Cubesat XI-IV 24 Nov 18:56:18 18:58:13 12° 272° (W) 19:00:08 437.490
BEESAT 3 24 Nov 19:02:46 19:04:43 13° 109° (ESE) 19:06:40 437.485
PRISM 24 Nov 19:07:09 19:10:13 20° 295° (WNW) 19:13:16 437.425
CUTE 1.7 & AOD 2 24 Nov 19:09:59 19:13:32 27° 68° (ENE) 19:17:06 437.475
BEESAT 2 24 Nov 19:16:07 19:18:46 17° 110° (ESE) 19:21:26 435.950
DOVE 4 24 Nov 19:17:20 19:20:33 19° 66° (ENE) 19:23:39 437.250
HO-68 24 Nov 19:28:32 19:35:38 68° 70° (ENE) 19:42:47 435.675
UKube-1 24 Nov 19:30:20 19:32:56 16° 63° (ENE) 19:35:34 .
Oscar 11 24 Nov 19:42:01 19:45:17 21° 66° (ENE) 19:48:33 145.826/435.025
AIST 2 24 Nov 19:43:40 19:46:21 17° 110° (ESE) 19:49:04 435.215
SEEDS 24 Nov 19:44:22 19:48:27 55° 74° (ENE) 19:52:34 437.485
RS-15 24 Nov 19:46:06 19:54:37 25° 344° (NNW) 20:03:17 29.354- 29.394
CUBEBUG 2 24 Nov 19:49:43 19:52:11 15° 64° (ENE) 19:54:37 437.445
GOMX 1 24 Nov 19:50:38 19:55:21 55° 74° (ENE) 19:59:45 467.674
UWE-3 24 Nov 19:53:21 19:55:38 14° 64° (ENE) 19:57:54 435.000/436.395/437.385
PCSat 24 Nov 19:53:59 19:59:24 85° 300° (WNW) 20:04:52 145.827
DX 1 24 Nov 20:02:45 20:06:42 34° 69° (ENE) 20:10:40 434.975-435.025
CINEMA 3 24 Nov 20:03:41 20:07:37 33° 70° (ENE) 20:11:27 145.822/145.860
AAUSAT CUBESAT 2 24 Nov 20:04:15 20:08:23 70° 75° (ENE) 20:12:33 437.432
AIST 1 24 Nov 20:04:41 20:08:52 43° 283° (WNW) 20:13:06
PHONESAT 2.4 24 Nov 20:06:47 20:09:47 23° 206° (SSW) 20:12:45 2401.200-2431.200
CANX-2 24 Nov 20:10:13 20:14:22 59° 260° (W) 20:18:34 2200.000
BRITE-PL 24 Nov 20:11:13 20:16:18 69° 258° (WSW) 20:21:00 437.365/2234.400
DELFI C3 24 Nov 20:17:25 20:21:13 40° 72° (ENE) 20:25:04 145.870
COMPASS 1 24 Nov 20:18:29 20:22:38 71° 258° (WSW) 20:26:49 437.405
VERMONT LUNAR 24 Nov 20:25:01 20:26:54 14° 212° (SSW) 20:28:47 437.305
50 SAT 24 Nov 20:25:29 20:27:26 13° 63° (ENE) 20:29:23 437.505
HUMSAT D 24 Nov 20:25:53 20:28:30 17° 65° (ENE) 20:31:07 437.325/437.525
VELOX 1 24 Nov 20:26:45 20:30:01 20° 65° (ENE) 20:33:17 145.980
STRAND 1 24 Nov 20:29:19 20:31:40 13° 302° (WNW) 20:34:01 437.568
ZACube-1 24 Nov 20:30:13 20:33:53 29° 69° (ENE) 20:37:31 437.345
BEESAT 3 24 Nov 20:38:21 20:42:25 61° 306° (NW) 20:46:34 437.485
GONETS M04 24 Nov 20:40:17 20:47:51 34° 276° (W) 20:55:22
CUTE 1.7 & AOD 2 24 Nov 20:45:51 20:49:25 26° 265° (W) 20:53:00 437.475
AISAT 24 Nov 20:51:06 20:55:11 35° 69° (ENE) 20:59:16 437.250
BEESAT 2 24 Nov 20:52:39 20:56:40 49° 308° (NW) 21:00:45 435.950
DOVE 4 24 Nov 20:53:37 20:58:04 44° 261° (W) 21:02:18 437.250
UKube-1 24 Nov 21:04:26 21:08:41 53° 259° (W) 21:12:58 .
FUNcube-1 24 Nov 21:05:04 21:09:17 72° 75° (ENE) 21:13:26 145.935
CUBEBUG 1 24 Nov 21:10:25 21:13:44 21° 65° (ENE) 21:17:03 437.445
UNISAT 6 24 Nov 21:16:30 21:18:24 12° 90° (E) 21:20:18 437.425
Oscar 11 24 Nov 21:17:17 21:21:14 35° 263° (W) 21:25:13 145.826/435.025
HO-68 24 Nov 21:18:24 21:23:53 23° 268° (W) 21:29:25 435.675
AIST 2 24 Nov 21:20:26 21:24:34 52° 307° (NW) 21:28:47 435.215
SEEDS 24 Nov 21:22:47 21:24:38 13° 270° (W) 21:26:31 437.485
CUBEBUG 2 24 Nov 21:24:21 21:28:32 50° 260° (W) 21:32:38 437.445
UWE-3 24 Nov 21:27:37 21:31:47 53° 260° (W) 21:35:54 435.000/436.395/437.385
GOMX 1 24 Nov 21:30:53 21:33:43 16° 268° (W) 21:36:29 467.674
DX 1 24 Nov 21:39:32 21:43:00 23° 265° (W) 21:46:29 434.975-435.025
PCSat 24 Nov 21:40:14 21:43:39 17° 320° (NW) 21:47:06 145.827
BUGSAT 1 24 Nov 21:40:38 21:41:49 11° 90° (E) 21:42:59 437.445
CINEMA 3 24 Nov 21:41:27 21:44:54 22° 265° (W) 21:48:16 145.822/145.860
ANTELSAT 24 Nov 21:43:37 21:47:16 25° 95° (E) 21:50:58 437.575/2403.000
POPSAT HIP 1 24 Nov 21:45:34 21:48:17 17° 92° (E) 21:51:00 437.405
DELFI C3 24 Nov 21:54:09 21:56:44 16° 268° (W) 21:59:19 145.870
ESTCUBE 1 24 Nov 21:55:11 21:59:40 62° 74° (ENE) 22:04:12 437.505/2401.250
50 SAT 24 Nov 21:58:22 22:02:19 54° 260° (W) 22:06:17 437.505
HUMSAT D 24 Nov 22:00:03 22:04:00 43° 261° (W) 22:07:57 437.325/437.525
VELOX 1 24 Nov 22:02:05 22:06:20 41° 261° (W) 22:10:35 145.980
RS-15 24 Nov 22:03:08 22:12:04 27° 20° (NNE) 22:21:13 29.354- 29.394
ZACube-1 24 Nov 22:06:52 22:10:17 23° 265° (W) 22:13:40 437.345
POLYITAN 1 24 Nov 22:17:17 22:21:13 37° 98° (E) 22:25:09 437.675
QB50P2 24 Nov 22:19:51 22:23:51 40° 98° (E) 22:27:50 145.880/145.840
BEESAT 3 24 Nov 22:20:44 22:21:32 10° 326° (NW) 22:22:19 437.485
DUCHIFAT 1 24 Nov 22:26:48 22:30:52 47° 99° (E) 22:34:55 145.980
AISAT 24 Nov 22:28:22 22:31:54 23° 266° (W) 22:35:26 437.250
TISAT 1 24 Nov 22:33:56 22:37:55 40° 71° (ENE) 22:41:55 437.305
TIGRISAT 24 Nov 22:38:17 22:42:42 88° 284° (WNW) 22:47:13 435.000
SPROUT 24 Nov 22:39:19 22:43:21 39° 71° (ENE) 22:47:23 437.525
AUBIESAT-1 24 Nov 22:43:01 22:45:40 17° 56° (ENE) 22:48:27 437.475
CUBEBUG 1 24 Nov 22:45:41 22:49:51 39° 262° (W) 22:54:03 437.445
NANOSAT C BR1 24 Nov 22:45:52 22:50:07 79° 103° (ESE) 22:54:19 145.865
M-CUBED/EXP-1 PRIME 24 Nov 22:46:52 22:49:50 19° 58° (ENE) 22:52:59 437.505
ISS 24 Nov 22:47:36 22:50:04 20° 134° (SE) 22:52:33 145.825
UNISAT 6 24 Nov 22:51:12 22:55:35 64° 286° (WNW) 23:00:03 437.425
CUSAT 1 24 Nov 22:52:22 22:56:22 31° 77° (ENE) 23:01:29 437.405
SWISSCUBE 24 Nov 22:55:29 22:57:53 14° 60° (ENE) 23:00:18 437.505
QB50P1 24 Nov 22:55:35 22:59:49 81° 284° (WNW) 23:04:02 145.935-145.965
DANDE 24 Nov 23:11:57 23:15:59 38° 78° (ENE) 23:21:19 436.750
BUGSAT 1 24 Nov 23:13:41 23:17:44 60° 286° (WNW) 23:21:42 437.445
ANTELSAT 24 Nov 23:20:09 23:24:06 32° 291° (WNW) 23:28:06 437.575/2403.000
POPSAT HIP 1 24 Nov 23:20:24 23:24:24 42° 289° (WNW) 23:28:23 437.405
BEESAT 24 Nov 23:25:11 23:29:00 24° 65° (ENE) 23:32:50 436.000
ESTCUBE 1 24 Nov 23:34:48 23:36:58 13° 270° (W) 23:39:09 437.505/2401.250
POLYITAN 1 24 Nov 23:53:52 23:56:56 20° 294° (WNW) 00:00:00 437.675
QB50P2 24 Nov 23:56:32 23:59:30 19° 295° (WNW) 00:02:27 145.880/145.840
DUCHIFAT 1 25 Nov 00:03:46 00:06:23 16° 296° (WNW) 00:08:59 145.980
TISAT 1 25 Nov 00:10:57 00:13:55 18° 267° (W) 00:16:54 437.305
KKS-1 25 Nov 00:14:34 00:17:13 16° 63° (ENE) 00:19:51 437.445
RS-15 25 Nov 00:16:06 00:27:13 64° 50° (NE) 00:38:47 29.354- 29.394
AUBIESAT-1 25 Nov 00:16:16 00:20:11 52° 256° (WSW) 00:24:29 437.475
SPROUT 25 Nov 00:16:31 00:19:35 19° 267° (W) 00:22:40 437.525
ITUPSAT 1 25 Nov 00:18:49 00:23:37 78° 75° (ENE) 00:28:28 437.325
M-CUBED/EXP-1 PRIME 25 Nov 00:20:44 00:24:32 42° 257° (WSW) 00:28:42 437.505
MaSat-1 25 Nov 00:20:53 00:23:11 62° 63° (ENE) 00:25:32 437.345
ISS 25 Nov 00:23:16 00:26:29 53° 331° (NNW) 00:29:43 145.825
NANOSAT C BR1 25 Nov 00:24:41 00:25:22 10° 300° (WNW) 00:26:03 145.865
Oscar 19 25 Nov 00:29:38 00:33:49 25° 94° (E) 00:38:00 437.125/150
SWISSCUBE 25 Nov 00:30:20 00:35:08 75° 257° (WSW) 00:39:58 437.505
CUSAT 1 25 Nov 00:35:26 00:39:27 30° 265° (W) 00:44:32 437.405
DANDE 25 Nov 00:55:57 00:59:26 22° 265° (W) 01:03:42 436.750
BEESAT 25 Nov 01:02:10 01:06:37 39° 262° (W) 01:11:08 436.000
STARS 25 Nov 01:11:21 01:15:27 39° 70° (ENE) 01:19:33 437.465
ITAMSAT 1 25 Nov 01:19:41 01:24:06 28° 95° (E) 01:28:28 435.822/435.867
Gurwin Techsat 1B 25 Nov 01:44:22 01:48:54 28° 95° (E) 01:53:24 435.225
KKS-1 25 Nov 01:49:02 01:53:25 56° 259° (W) 01:57:48 437.445
YUBILEINY 25 Nov 01:54:18 02:02:48 56° 90° (E) 02:11:18 435.215
ITUPSAT 1 25 Nov 02:00:29 02:02:04 12° 271° (W) 02:03:40 437.325
ISS 25 Nov 02:01:17 02:03:41 18° 350° (N) 02:06:06 145.825
Oscar 19 25 Nov 02:08:28 02:13:18 42° 291° (WNW) 02:18:08 437.125/150
SO-50 25 Nov 02:16:15 02:16:53 10° 106° (ESE) 02:17:31 436.795
RS-15 25 Nov 02:29:00 02:39:07 41° 252° (WSW) 02:49:40 29.354- 29.394
MOZHAYETS 4 25 Nov 02:46:22 02:49:23 18° 64° (ENE) 02:52:25
STARS 25 Nov 02:48:52 02:52:05 20° 267° (W) 02:55:18 437.465
HORYU 2 25 Nov 02:56:04 03:00:31 60° 101° (ESE) 03:04:57 437.375
ITAMSAT 1 25 Nov 02:58:54 03:03:39 37° 292° (WNW) 03:08:22 435.822/435.867
PCSat 25 Nov 02:59:05 03:02:36 17° 40° (NE) 03:06:07 145.827
BEESAT 3 25 Nov 03:20:47 03:23:12 15° 39° (NE) 03:25:35 437.485
Gurwin Techsat 1B 25 Nov 03:24:02 03:28:56 38° 292° (WNW) 03:33:48 435.225
AO-7 25 Nov 03:26:52 03:34:40 41° 99° (E) 03:42:25 29.400- 29.500
BEESAT 2 25 Nov 03:34:56 03:37:48 17° 41° (NE) 03:40:39 435.950
ISS 25 Nov 03:38:49 03:41:14 19° 10° (N) 03:43:40 145.825
JAS-2 25 Nov 03:49:15 03:54:17 21° 87° (E) 03:58:54 435.910
SO-50 25 Nov 03:52:07 03:56:38 87° 304° (WNW) 04:01:19 436.795
YUBILEINY 25 Nov 03:52:15 04:00:00 34° 291° (WNW) 04:07:46 435.215
AIST 2 25 Nov 04:04:08 04:07:07 18° 41° (NE) 04:10:05 435.215
MOZHAYETS 4 25 Nov 04:21:44 04:26:12 51° 261° (W) 04:30:43
PRISM 25 Nov 04:22:39 04:26:23 32° 69° (ENE) 04:30:10 437.425
CUBESAT XI-V 25 Nov 04:25:00 04:27:34 15° 62° (ENE) 04:30:09 437.345
STRAND 1 25 Nov 04:27:43 04:31:05 18° 61° (ENE) 04:34:27 437.568
HORYU 2 25 Nov 04:34:11 04:36:43 15° 298° (WNW) 04:39:15 437.375
PCSat 25 Nov 04:41:21 04:46:49 87° 60° (ENE) 04:52:14 145.827
BEESAT 3 25 Nov 04:57:46 05:01:59 82° 238° (WSW) 05:06:08 437.485
O/OREOS (USA 219) 25 Nov 05:09:37 05:13:30 29° 104° (ESE) 05:17:22 437.305
BEESAT 2 25 Nov 05:12:20 05:16:31 64° 240° (WSW) 05:20:38 435.950
ISS 25 Nov 05:15:11 05:18:26 54° 30° (NNE) 05:21:40 145.825
AO-7 25 Nov 05:19:38 05:27:31 48° 298° (WNW) 05:35:23 29.400- 29.500
Cubesat XI-IV 25 Nov 05:29:11 05:33:58 33° 96° (E) 05:38:42 437.490
JAS-2 25 Nov 05:32:56 05:40:08 71° 288° (WNW) 05:46:27 435.910
SO-50 25 Nov 05:35:08 05:37:55 16° 324° (NW) 05:40:45 436.795
AIST 2 25 Nov 05:41:54 05:46:11 64° 240° (WSW) 05:50:23 435.215
GONETS M04 25 Nov 05:56:18 05:57:53 11° 71° (ENE) 05:59:28
PRISM 25 Nov 05:58:42 06:01:59 22° 265° (W) 06:05:19 437.425
CUBESAT XI-V 25 Nov 05:59:46 06:04:27 67° 259° (W) 06:09:11 437.345
STRAND 1 25 Nov 06:04:39 06:09:45 63° 258° (WSW) 06:14:53 437.568
CUTE-I 25 Nov 06:10:33 06:15:54 77° 103° (ESE) 06:21:12 437.470
AIST 1 25 Nov 06:11:16 06:15:32 47° 78° (ENE) 06:19:43
PCSat 25 Nov 06:27:09 06:29:26 13° 258° (WSW) 06:31:42 145.827
O/OREOS (USA 219) 25 Nov 06:48:58 06:52:51 28° 302° (WNW) 06:56:44 437.305
ISS 25 Nov 06:52:23 06:54:50 19° 226° (SW) 06:57:17 145.825
HO-68 25 Nov 07:00:24 07:01:12 10° 85° (E) 07:01:59 435.675
Cubesat XI-IV 25 Nov 07:09:17 07:14:01 33° 293° (WNW) 07:18:42 437.490
AO-7 25 Nov 07:15:44 07:18:15 12° 320° (NW) 07:20:47 29.400- 29.500
JAS-2 25 Nov 07:20:07 07:23:43 15° 309° (NW) 07:27:08 435.910
GONETS M04 25 Nov 07:44:07 07:52:43 62° 92° (E) 08:01:24
AAUSAT CUBESAT 2 25 Nov 07:49:52 07:51:01 11° 89° (E) 07:52:10 437.432
AIST 1 25 Nov 07:50:17 07:52:45 15° 275° (W) 07:55:11
CUTE-I 25 Nov 07:52:16 07:55:18 16° 301° (WNW) 07:58:21 437.470
GOMX 1 25 Nov 07:53:36 07:55:26 13° 91° (E) 07:57:16 467.674
CANX-2 25 Nov 07:55:46 07:59:10 22° 94° (E) 08:02:33 2200.000
COMPASS 1 25 Nov 08:02:56 08:05:52 18° 93° (E) 08:08:48 437.405
BRITE-PL 25 Nov 08:15:51 08:19:33 31° 97° (E) 08:23:16 437.365/2234.400
UNISAT 6 25 Nov 08:17:24 08:19:12 13° 62° (ENE) 08:21:00 437.425
CUTE 1.7 & AOD 2 25 Nov 08:30:00 08:34:10 48° 99° (E) 08:38:19 437.475
BUGSAT 1 25 Nov 08:32:51 08:33:40 11° 61° (ENE) 08:34:29 437.445
POPSAT HIP 1 25 Nov 08:40:08 08:42:36 15° 64° (ENE) 08:45:05 437.405
HO-68 25 Nov 08:43:01 08:50:11 67° 103° (ESE) 08:57:17 435.675
ANTELSAT 25 Nov 08:44:12 08:47:35 24° 67° (ENE) 08:51:00 437.575/2403.000
DOVE 4 25 Nov 08:51:59 08:55:57 42° 99° (E) 09:00:00 437.250
UKube-1 25 Nov 08:52:17 08:55:48 24° 95° (E) 08:59:18 .
FUNcube-1 25 Nov 08:54:53 08:56:48 13° 91° (E) 08:58:43 145.935
Oscar 11 25 Nov 09:03:51 09:07:55 37° 98° (E) 09:11:57 145.826/435.025
SEEDS 25 Nov 09:04:11 09:08:27 80° 284° (WNW) 09:12:44 437.485
POLYITAN 1 25 Nov 09:11:34 09:15:22 32° 69° (ENE) 09:19:09 437.675
QB50P2 25 Nov 09:13:53 09:17:44 34° 70° (ENE) 09:21:35 145.880/145.840
CUBEBUG 2 25 Nov 09:15:03 09:18:47 29° 96° (E) 09:22:33 437.445
UWE-3 25 Nov 09:17:17 09:20:54 27° 96° (E) 09:24:33 435.000/436.395/437.385
DUCHIFAT 1 25 Nov 09:20:24 09:24:22 39° 71° (ENE) 09:28:20 145.980
AAUSAT CUBESAT 2 25 Nov 09:22:55 09:27:08 66° 285° (WNW) 09:31:19 437.432
DX 1 25 Nov 09:26:22 09:30:40 57° 101° (E) 09:34:56 434.975-435.025
GOMX 1 25 Nov 09:29:52 09:33:55 53° 287° (WNW) 09:38:01 467.674
CANX-2 25 Nov 09:31:19 09:35:09 32° 290° (WNW) 09:38:59 2200.000
DELFI C3 25 Nov 09:32:39 09:36:48 68° 101° (ESE) 09:40:55 145.870
CINEMA 3 25 Nov 09:34:27 09:38:39 77° 102° (ESE) 09:42:59 145.822/145.860
COMPASS 1 25 Nov 09:37:48 09:41:46 40° 289° (WNW) 09:45:44 437.405
TIGRISAT 25 Nov 09:38:01 09:42:17 88° 79° (ENE) 09:46:34 435.000
NANOSAT C BR1 25 Nov 09:39:22 09:43:35 64° 74° (ENE) 09:47:49 145.865
50 SAT 25 Nov 09:39:30 09:42:29 20° 94° (E) 09:45:28 437.505
GONETS M04 25 Nov 09:42:35 09:50:06 31° 293° (WNW) 09:57:43
HUMSAT D 25 Nov 09:44:17 09:47:52 27° 96° (E) 09:51:27 437.325/437.525
QB50P1 25 Nov 09:49:06 09:53:22 83° 76° (ENE) 09:57:38 145.935-145.965
ESTCUBE 1 25 Nov 09:49:33 09:51:32 13° 90° (E) 09:53:30 437.505/2401.250
UNISAT 6 25 Nov 09:51:14 09:55:28 65° 259° (WSW) 09:59:44 437.425
VELOX 1 25 Nov 09:52:27 09:56:30 34° 97° (E) 10:00:30 145.980
ZACube-1 25 Nov 09:53:59 09:58:10 59° 101° (E) 10:02:24 437.345
BRITE-PL 25 Nov 09:54:47 09:57:57 22° 293° (WNW) 10:01:07 437.365/2234.400
BUGSAT 1 25 Nov 10:04:16 10:08:32 80° 257° (WSW) 10:12:48 437.445
CUTE 1.7 & AOD 2 25 Nov 10:07:03 10:09:43 16° 296° (WNW) 10:12:23 437.475
POPSAT HIP 1 25 Nov 10:13:57 10:18:06 52° 260° (W) 10:22:16 437.405
AISAT 25 Nov 10:17:55 10:22:21 67° 102° (ESE) 10:26:43 437.250
ANTELSAT 25 Nov 10:20:28 10:24:16 31° 263° (W) 10:28:05 437.575/2403.000
UKube-1 25 Nov 10:28:09 10:32:00 32° 292° (WNW) 10:35:50 .
FUNcube-1 25 Nov 10:29:21 10:33:30 56° 286° (WNW) 10:37:42 145.935
DOVE 4 25 Nov 10:30:45 10:33:27 17° 295° (WNW) 10:36:12 437.250
HO-68 25 Nov 10:31:38 10:37:19 26° 302° (WNW) 10:42:59 435.675
CUBEBUG 1 25 Nov 10:34:16 10:38:17 35° 97° (E) 10:42:15 437.445
Oscar 11 25 Nov 10:40:36 10:43:51 21° 294° (WNW) 10:47:05 145.826/435.025
SO-50 25 Nov 10:43:26 10:46:45 18° 38° (NE) 10:50:06 436.795
POLYITAN 1 25 Nov 10:48:00 10:51:22 22° 266° (W) 10:54:44 437.675
QB50P2 25 Nov 10:50:28 10:53:44 21° 266° (W) 10:57:01 145.880/145.840
CUBEBUG 2 25 Nov 10:51:57 10:55:24 25° 292° (WNW) 10:58:53 437.445
UWE-3 25 Nov 10:53:50 10:57:24 27° 291° (WNW) 11:01:00 435.000/436.395/437.385
DUCHIFAT 1 25 Nov 10:57:25 11:00:23 18° 267° (W) 11:03:23 145.980
DX 1 25 Nov 11:04:03 11:06:27 15° 298° (WNW) 11:08:50 434.975-435.025
DELFI C3 25 Nov 11:10:09 11:11:33 12° 298° (WNW) 11:12:56 145.870
50 SAT 25 Nov 11:14:13 11:17:53 33° 290° (WNW) 11:21:33 437.505
CINEMA 3 25 Nov 11:14:38 11:15:18 10° 299° (WNW) 11:15:59 145.822/145.860
NANOSAT C BR1 25 Nov 11:18:35 11:19:54 11° 270° (W) 11:21:13 145.865
HUMSAT D 25 Nov 11:20:09 11:23:36 26° 292° (WNW) 11:27:05 437.325/437.525
ESTCUBE 1 25 Nov 11:24:20 11:28:51 65° 286° (WNW) 11:33:19 437.505/2401.250
VELOX 1 25 Nov 11:29:25 11:32:55 23° 294° (WNW) 11:36:23 145.980
ZACube-1 25 Nov 11:32:00 11:34:06 14° 297° (WNW) 11:36:12 437.345
Oscar 19 25 Nov 11:47:03 11:51:44 38° 68° (ENE) 11:56:26 437.125/150
TISAT 1 25 Nov 11:54:00 11:58:13 68° 102° (ESE) 12:02:23 437.305
AISAT 25 Nov 11:56:21 11:58:26 13° 299° (WNW) 12:00:31 437.250
AUBIESAT-1 25 Nov 11:59:46 12:02:18 14° 94° (E) 12:04:48 437.475
SPROUT 25 Nov 12:01:19 12:05:37 73° 102° (ESE) 12:09:52 437.525
M-CUBED/EXP-1 PRIME 25 Nov 12:03:54 12:07:06 17° 96° (E) 12:10:15 437.505
YUBILEINY 25 Nov 12:04:03 12:11:20 28° 67° (ENE) 12:18:32 435.215
CUSAT 1 25 Nov 12:08:15 12:10:18 19° 94° (E) 12:12:15 437.405
CUBEBUG 1 25 Nov 12:11:05 12:14:28 22° 294° (WNW) 12:17:49 437.445
ITUPSAT 1 25 Nov 12:20:01 12:23:27 19° 93° (E) 12:26:52 437.325
SO-50 25 Nov 12:23:02 12:27:56 84° 238° (WSW) 12:32:50 436.795
DANDE 25 Nov 12:30:14 12:32:50 33° 97° (E) 12:35:14 436.750
SWISSCUBE 25 Nov 12:30:48 12:34:52 27° 95° (E) 12:38:55 437.505
ITAMSAT 1 25 Nov 12:38:07 12:43:04 45° 70° (ENE) 12:48:02 435.822/435.867
AO-7 25 Nov 12:39:22 12:43:19 14° 44° (NE) 12:47:17 29.400- 29.500
BEESAT 25 Nov 13:01:37 13:06:18 51° 100° (E) 13:10:57 436.000
Gurwin Techsat 1B 25 Nov 13:05:56 13:10:59 47° 70° (ENE) 13:16:04 435.225
VERMONT LUNAR 25 Nov 13:16:49 13:17:24 10° 146° (SE) 13:17:59 437.305
Oscar 19 25 Nov 13:26:53 13:31:09 27° 265° (W) 13:35:27 437.125/150
TISAT 1 25 Nov 13:31:56 13:33:30 12° 299° (WNW) 13:35:03 437.305
AUBIESAT-1 25 Nov 13:32:50 13:37:45 73° 290° (WNW) 13:42:33 437.475
M-CUBED/EXP-1 PRIME 25 Nov 13:37:36 13:42:29 61° 292° (WNW) 13:47:16 437.505
SPROUT 25 Nov 13:39:41 13:41:06 12° 299° (WNW) 13:42:32 437.525
KKS-1 25 Nov 13:40:09 13:43:54 26° 95° (E) 13:47:38 437.445
HORYU 2 25 Nov 13:55:18 13:59:38 60° 73° (ENE) 14:04:01 437.375
ITUPSAT 1 25 Nov 13:56:58 14:01:35 47° 289° (WNW) 14:06:10 437.325
YUBILEINY 25 Nov 14:00:13 14:08:48 66° 268° (W) 14:17:20 435.215
JAS-2 25 Nov 14:03:30 14:07:06 14° 50° (NE) 14:10:42 435.910
SO-50 25 Nov 14:07:00 14:07:43 10° 254° (WSW) 14:08:25 436.795
SWISSCUBE 25 Nov 14:08:27 14:12:45 34° 292° (WNW) 14:17:01 437.505
ITAMSAT 1 25 Nov 14:18:40 14:22:45 23° 266° (W) 14:26:52 435.822/435.867
AO-7 25 Nov 14:26:20 14:34:23 59° 65° (ENE) 14:42:29 29.400- 29.500
STARS 25 Nov 14:36:54 14:41:19 73° 102° (ESE) 14:45:41 437.465
PHONESAT 2.4 25 Nov 14:38:27 14:41:32 25° 155° (SSE) 14:44:38 2401.200-2431.200
BEESAT 25 Nov 14:40:25 14:43:46 19° 297° (WNW) 14:47:06 436.000
RS-15 25 Nov 14:42:00 14:51:22 34° 106° (ESE) 15:00:40 29.354- 29.394
Gurwin Techsat 1B 25 Nov 14:47:02 14:51:10 23° 267° (W) 14:55:20 435.225
VERMONT LUNAR 25 Nov 14:51:54 14:55:14 35° 161° (SSE) 14:58:35 437.305
AUBIESAT-1 25 Nov 15:10:33 15:11:52 11° 308° (NW) 15:13:10 437.475
KKS-1 25 Nov 15:16:40 15:20:31 30° 292° (WNW) 15:24:22 437.445
O/OREOS (USA 219) 25 Nov 15:18:14 15:22:41 64° 65° (ENE) 15:27:08 437.305
MaSat-1 25 Nov 15:24:16 15:27:01 34° 299° (WNW) 15:29:34 437.345
HORYU 2 25 Nov 15:34:37 15:36:43 13° 269° (W) 15:38:49 437.375
JAS-2 25 Nov 15:43:04 15:50:32 60° 70° (ENE) 15:58:14 435.910
CUTE-I 25 Nov 15:55:21 15:59:00 19° 61° (ENE) 16:02:40 437.470
YUBILEINY 25 Nov 16:01:23 16:03:44 11° 288° (WNW) 16:06:05 435.215
STARS 25 Nov 16:15:32 16:17:12 12° 299° (WNW) 16:18:52 437.465
PHONESAT 2.4 25 Nov 16:16:20 16:20:00 58° 171° (S) 16:23:40 2401.200-2431.200
MOZHAYETS 4 25 Nov 16:16:28 16:20:46 35° 97° (E) 16:25:02
AO-7 25 Nov 16:20:19 16:27:31 33° 264° (W) 16:34:48 29.400- 29.500
VERMONT LUNAR 25 Nov 16:29:54 16:33:30 64° 178° (S) 16:37:06 437.305
Cubesat XI-IV 25 Nov 16:51:43 16:56:59 58° 72° (ENE) 17:02:15 437.490
RS-15 25 Nov 16:51:58 17:02:52 69° 308° (NW) 17:13:51 29.354- 29.394
O/OREOS (USA 219) 25 Nov 16:59:41 17:01:30 12° 262° (W) 17:03:19 437.305
JAS-2 25 Nov 17:29:19 17:35:52 31° 268° (W) 17:42:40 435.910
HO-68 25 Nov 17:30:54 17:32:42 11° 46° (NE) 17:34:31 435.675
CUTE-I 25 Nov 17:33:16 17:38:34 63° 258° (WSW) 17:43:54 437.470
PRISM 25 Nov 17:40:22 17:44:30 49° 100° (E) 17:48:35 437.425
GONETS M04 25 Nov 17:53:57 18:01:38 32° 68° (ENE) 18:09:14
MOZHAYETS 4 25 Nov 17:54:03 17:57:49 25° 293° (WNW) 18:01:34
PHONESAT 2.4 25 Nov 17:54:59 17:58:39 58° 189° (S) 18:02:19 2401.200-2431.200
CUBESAT XI-V 25 Nov 17:56:31 18:00:36 29° 95° (E) 18:04:37 437.345
VERMONT LUNAR 25 Nov 18:08:19 18:11:49 45° 195° (SSW) 18:15:18 437.305
STRAND 1 25 Nov 18:14:44 18:19:34 41° 98° (E) 18:24:22 437.568
Cubesat XI-IV 25 Nov 18:33:45 18:37:26 19° 268° (W) 18:41:09 437.490
AIST 1 25 Nov 18:41:57 18:45:41 28° 89° (E) 18:49:27
